Farmville, Virginia, United States (23901)
Lat: 37.30N, Lon: 78.39W
Wx Zone: VAZ060
Local Info
Past Weather Observations for Today

NOTE: This archive is for the closest National Weather Service station to Farmville. Information may differ from the station used for current weather conditions.

Click here for Long-term Archive

Time Weather Temperature Dewpoint Humidity Pressure Winds Precip Visibility
18:04
Rain
N/A N/A N/A 30.09 in
(1019 mb)
NNE 11.5 mph
(NNE 19 kph)
0.09 in
(2.29 mm)
3SM
17:54
Heavy Rain
N/A N/A N/A 30.09 in
(1019 mb)
N 8.1 mph
(N 13 kph)
0.05 in
(1.27 mm)
1 1/2SM
17:52
Heavy Rain
N/A N/A N/A 30.09 in
(1019 mb)
N 8.1 mph
(N 13 kph)
0.02 in
(0.51 mm)
1 3/4SM
17:33
Overcast
Thunder Storms
84°F / 29°C 82°F / 28°C 94% 30.09 in
(1019 mb)
NNE 11.5 mph
(NNE 19 kph)
- 5SM
16:54
Fair
N/A N/A N/A 30.06 in
(1018 mb)
Calm - 10SM
15:54
Fair
N/A N/A N/A 30.06 in
(1018 mb)
SW 3.5 mph
(SW 6 kph)
- 10SM
14:54
Fair
N/A N/A N/A 30.09 in
(1019 mb)
SW 5.8 mph
(SW 9 kph)
- 10SM
13:54
Fair
N/A N/A N/A 30.09 in
(1019 mb)
Variable 5.8 mph
(Variable 9 kph)
- 10SM
12:54
Fair
N/A N/A N/A 30.12 in
(1020 mb)
Variable 4.6 mph
(Variable 7 kph)
- 10SM
11:54
Fair
N/A N/A N/A 30.12 in
(1020 mb)
Variable 4.6 mph
(Variable 7 kph)
-
10:54
Fair
N/A N/A N/A 30.12 in
(1020 mb)
Calm -
09:54
Clear
77°F / 25°C 70°F / 21°C 79% 30.12 in
(1020 mb)
Variable 5.8 mph
(Variable 9 kph)
- 10SM
08:54
Clear
73°F / 23°C 70°F / 21°C 89% 30.12 in
(1020 mb)
W 5.8 mph
(W 9 kph)
- 10SM
07:54
Partly Cloudy
72°F / 22°C 72°F / 22°C 100% 30.12 in
(1020 mb)
Calm - 9SM
07:36
Overcast
Fog And Mist
72°F / 22°C 72°F / 22°C 100% 30.09 in
(1019 mb)
S 4.6 mph
(S 7 kph)
- 3SM
07:09
Overcast
Fog And Mist
72°F / 22°C 72°F / 22°C 100% 30.09 in
(1019 mb)
S 3.5 mph
(S 6 kph)
- 1 1/2SM
07:01
Overcast
Fog And Mist
70°F / 21°C 70°F / 21°C 100% 30.09 in
(1019 mb)
Calm - 3/4SM
06:54
Obscured
Fog And Mist
70°F / 21°C 70°F / 21°C 100% 30.09 in
(1019 mb)
Calm - 3/4SM
06:52
Obscured
Fog And Mist
70°F / 21°C 70°F / 21°C 100% 30.09 in
(1019 mb)
Calm - 3/4SM
05:54
Obscured
Fog
70°F / 21°C 70°F / 21°C 100% 30.09 in
(1019 mb)
Calm - M1/4SM
05:22
Obscured
Fog
68°F / 20°C 68°F / 20°C 100% 30.06 in
(1018 mb)
Calm - 1/4SM
05:13
Obscured
Fog
68°F / 20°C 68°F / 20°C 100% 30.06 in
(1018 mb)
Calm - 1/2SM
05:05
Obscured
Fog
68°F / 20°C 68°F / 20°C 100% 30.06 in
(1018 mb)
Calm - 1/2SM
04:54
Obscured
Fog
66°F / 19°C 66°F / 19°C 100% 30.06 in
(1018 mb)
Calm - 1/4SM
04:49
Obscured
Fog
66°F / 19°C 66°F / 19°C 100% 30.06 in
(1018 mb)
Calm - 1/4SM
04:40
Obscured
Fog
66°F / 19°C 66°F / 19°C 100% 30.06 in
(1018 mb)
Calm - 1/2SM
04:37
Obscured
Fog And Mist
66°F / 19°C 66°F / 19°C 100% 30.06 in
(1018 mb)
Calm - 1SM
04:32
Partly Cloudy
Fog And Mist
66°F / 19°C 66°F / 19°C 100% 30.06 in
(1018 mb)
Calm - 2SM
04:24
Clear
Fog And Mist
66°F / 19°C 66°F / 19°C 100% 30.06 in
(1018 mb)
Calm - 3SM
04:15
Clear
Fog And Mist
68°F / 20°C 68°F / 20°C 100% 30.06 in
(1018 mb)
Calm - 2SM
04:13
Clear
Fog And Mist
68°F / 20°C 68°F / 20°C 100% 30.06 in
(1018 mb)
Calm - 1 1/4SM
03:57
Clear
Fog And Mist
68°F / 20°C 68°F / 20°C 100% 30.04 in
(1017 mb)
Calm - 3/4SM
03:54
Obscured
Fog And Mist
68°F / 20°C 68°F / 20°C 100% 30.04 in
(1017 mb)
Calm - 1SM
03:49
Partly Cloudy
Fog And Mist
68°F / 20°C 68°F / 20°C 100% 30.04 in
(1017 mb)
Calm - 1 1/2SM
03:41
Partly Cloudy
Fog And Mist
70°F / 21°C 68°F / 20°C 94% 30.04 in
(1017 mb)
Calm - 2 1/2SM
03:35
Mostly Cloudy
Fog And Mist
70°F / 21°C 70°F / 21°C 100% 30.04 in
(1017 mb)
Calm - 3SM
03:26
Overcast
Fog And Mist
70°F / 21°C 70°F / 21°C 100% 30.04 in
(1017 mb)
Calm - 1 3/4SM
03:20
Mostly Cloudy
Fog And Mist
70°F / 21°C 70°F / 21°C 100% 30.06 in
(1018 mb)
Calm - 6SM
02:54
Mostly Cloudy
70°F / 21°C 70°F / 21°C 100% 30.04 in
(1017 mb)
Calm - 8SM
02:37
Mostly Cloudy
70°F / 21°C 70°F / 21°C 100% 30.04 in
(1017 mb)
Calm - 7SM
02:08
Partly Cloudy
Fog And Mist
72°F / 22°C 70°F / 21°C 94% 30.04 in
(1017 mb)
Calm - 5SM
01:54
Mostly Cloudy
Fog And Mist
72°F / 22°C 70°F / 21°C 94% 30.04 in
(1017 mb)
Calm - 5SM
01:41
Mostly Cloudy
Fog And Mist
72°F / 22°C 70°F / 21°C 94% 30.04 in
(1017 mb)
Calm - 3SM
01:34
Mostly Cloudy
Fog And Mist
72°F / 22°C 70°F / 21°C 94% 30.04 in
(1017 mb)
Calm - 3SM
01:26
Partly Cloudy
Fog And Mist
72°F / 22°C 72°F / 22°C 100% 30.04 in
(1017 mb)
Calm - 6SM
00:54
Overcast
73°F / 23°C 72°F / 22°C 94% 30.04 in
(1017 mb)
Calm - 7SM
00:43
Overcast
Fog And Mist
73°F / 23°C 72°F / 22°C 94% 30.04 in
(1017 mb)
Calm - 6SM
Time Weather Temperature Dewpoint Humidity Pressure Winds Precip Visibility


Weather for websites

WeatherForYou.com, LLC is not responsible for any damages or problems caused by this service. Current weather conditions are obtained from the closest station including government and personal stations which may have varying degrees of accuracy. Weather forecasts are derived from the NOAA NDFD. Like all things, this site belongs to Jesus Christ... He just trusts me to maintain it. If you have any questions or comments email webmaster@weatherforyou.com

Copyright © 2014, WeatherForYou.com LLC. All rights reserved.